EW5549 Weather Reports


Display with metric or nautical units.
time (UTC)temp
F
wind
direction
speed
MPH
gust
MPH
rain 1hr
in
rain 24hr
in
rain mn
in
humidity
%
barometer
mb
20260903184035 72 122 3.0 3.0 0.00 0.00 0.00 35 1010.8
20260903183534 72 101 4.0 7.0 0.00 0.00 0.00 35 1011.0
20260903183030 72 80 1.0 1.0 0.00 0.00 0.00 39 1011.1
20260903182528 71 73 6.0 8.0 0.00 0.00 0.00 38 1011.1
20260903182024 71 81 6.0 7.0 0.00 0.00 0.00 40 1011.3
20260903181518 71 78 1.0 2.0 0.00 0.00 0.00 39 1011.2
20260903181017 70 59 1.0 2.0 0.00 0.00 0.00 43 1011.5
20260903180513 71 35 3.0 3.0 0.00 0.00 0.00 43 1011.5
20260903180013 71 282 3.0 3.0 0.00 0.00 0.00 42 1011.3
20260903175511 70 59 1.0 2.0 0.00 0.00 0.00 44 1011.5
20260903175011 69 300 1.0 1.0 0.00 0.00 0.00 43 1011.7
20260903174506 69 8 3.0 3.0 0.00 0.00 0.00 43 1011.8
20260903174000 69 306 5.0 6.0 0.00 0.00 0.00 40 1011.7
20260903173455 68 275 4.0 5.0 0.00 0.00 0.00 43 1011.8
20260903172951 68 36 2.0 2.0 0.00 0.00 0.00 44 1011.7
20260903172446 68 113 2.0 2.0 0.00 0.00 0.00 47 1011.6
20260903171942 68 198 1.0 2.0 0.00 0.00 0.00 44 1011.7
20260903171437 69 73 2.0 2.0 0.00 0.00 0.00 43 1011.6
20260903170936 68 118 2.0 2.0 0.00 0.00 0.00 48 1011.8
20260903170431 69 85 3.0 3.0 0.00 0.00 0.00 48 1011.8
20260903165929 69 97 5.0 5.0 0.00 0.00 0.00 46 1011.7
20260903165419 68 83 4.0 5.0 0.00 0.00 0.00 48 1011.7
20260903164918 68 31 1.0 2.0 0.00 0.00 0.00 45 1011.7
20260903164413 66 52 0.0 0.0 0.00 0.00 0.00 47 1011.8
20260903163908 66 56 3.0 3.0 0.00 0.00 0.00 51 1011.7
20260903163404 65 73 1.0 2.0 0.00 0.00 0.00 60 1011.9
20260903162900 63 38 0.0 0.0 0.00 0.00 0.00 66 1011.9
20260903162356 63 353 3.0 5.0 0.00 0.00 0.00 66 1012.0
20260903161852 64 357 2.0 2.0 0.00 0.00 0.00 64 1012.2
20260903161347 63 55 1.0 1.0 0.00 0.00 0.00 64 1012.2
20260903160843 63 24 2.0 2.0 0.00 0.00 0.00 62 1012.2
20260903160341 63 16 3.0 3.0 0.00 0.00 0.00 59 1012.4
20260903155840 61 72 1.0 1.0 0.00 0.00 0.00 61 1012.4
20260903155335 62 71 0.0 1.0 0.00 0.00 0.00 62 1012.2
20260903154831 61 86 1.0 2.0 0.00 0.00 0.00 62 1012.4
20260903154327 60 57 2.0 2.0 0.00 0.00 0.00 65 1012.4
20260903153822 59 90 4.0 5.0 0.00 0.00 0.00 66 1012.2
20260903153318 59 70 4.0 5.0 0.00 0.00 0.00 67 1012.5
20260903152814 57 74 3.0 5.0 0.00 0.00 0.00 71 1012.4
20260903152309 57 52 1.0 2.0 0.00 0.00 0.00 69 1012.5
20260903151804 57 74 0.0 0.0 0.00 0.00 0.00 71 1012.6
20260903151300 55 72 2.0 2.0 0.00 0.00 0.00 71 1012.7
20260903150800 56 98 2.0 2.0 0.00 0.00 0.00 71 1013.0
20260903150254 56 65 0.0 0.0 0.00 0.00 0.00 72 1012.5
20260903145750 54 68 0.0 0.0 0.00 0.00 0.00 75 1012.9
20260903145245 52 72 0.0 1.0 0.00 0.00 0.00 78 1012.9
20260903144743 52 72 1.0 1.0 0.00 0.00 0.00 79 1012.8
20260903144239 52 97 2.0 2.0 0.00 0.00 0.00 80 1012.7
20260903143735 51 78 3.0 3.0 0.00 0.00 0.00 84 1012.6
20260903143231 51 105 5.0 6.0 0.00 0.00 0.00 85 1012.7
20260903142726 50 97 1.0 2.0 0.00 0.00 0.00 86 1012.7
20260903142222 50 102 2.0 2.0 0.00 0.00 0.00 87 1012.9
20260903141718 49 109 3.0 3.0 0.00 0.00 0.00 88 1013.0
20260903141213 49 88 1.0 1.0 0.00 0.00 0.00 87 1012.8
20260903140708 48 109 1.0 1.0 0.00 0.00 0.00 89 1012.8
20260903140203 48 91 1.0 1.0 0.00 0.00 0.00 89 1012.6
20260903135659 48 72 3.0 3.0 0.00 0.00 0.00 89 1012.7
20260903135154 48 76 4.0 6.0 0.00 0.00 0.00 89 1012.6
20260903134653 47 80 2.0 3.0 0.00 0.00 0.00 90 1012.9
20260903134149 46 230 0.0 0.0 0.00 0.00 0.00 90 1013.0
20260903133647 46 259 3.0 3.0 0.00 0.00 0.00 91 1013.1
20260903133143 46 259 3.0 3.0 0.00 0.00 0.00 91 1013.0
20260903132642 46 17 0.0 1.0 0.00 0.00 0.00 92 1012.8
20260903132137 46 344 2.0 2.0 0.00 0.00 0.00 92 1012.5
20260903131632 46 294 3.0 3.0 0.00 0.00 0.00 92 1012.7
20260903131131 46 350 0.0 0.0 0.00 0.00 0.00 93 1012.6
20260903130626 46 92 0.0 0.0 0.00 0.00 0.00 93 1012.4
20260903130120 46 10 0.0 0.0 0.00 0.00 0.00 93 1012.5
20260903125618 46 9 0.0 0.0 0.00 0.00 0.00 93 1012.5
20260903125114 45 24 0.0 0.0 0.00 0.00 0.00 93 1012.2
20260903124614 45 24 0.0 0.0 0.00 0.00 0.00 93 1012.0
20260903124113 45 10 1.0 1.0 0.00 0.00 0.00 93 1012.0
20260903123608 45 319 3.0 3.0 0.00 0.00 0.00 93 1012.1
20260903123106 45 50 0.0 0.0 0.00 0.00 0.00 93 1011.7
20260903122601 45 19 0.0 0.0 0.00 0.00 0.00 93 1011.9
20260903122101 45 19 0.0 0.0 0.00 0.00 0.00 92 1011.8
20260903121555 45 19 0.0 0.0 0.00 0.00 0.00 92 1011.7
20260903121051 45 41 0.0 0.0 0.00 0.00 0.00 91 1011.6
20260903120549 45 40 0.0 0.0 0.00 0.00 0.00 90 1011.5
20260903120044 44 59 0.0 0.0 0.00 0.00 0.00 90 1011.6
20260903115543 45 62 0.0 0.0 0.00 0.00 0.00 90 1011.7
20260903115038 44 63 0.0 0.0 0.00 0.00 0.00 90 1011.6
20260903114533 45 70 0.0 0.0 0.00 0.00 0.00 90 1011.6
20260903114029 45 71 0.0 0.0 0.00 0.00 0.00 89 1011.6
20260903113524 45 71 1.0 1.0 0.00 0.00 0.00 88 1011.6
20260903113020 45 65 1.0 1.0 0.00 0.00 0.00 88 1011.6
20260903112515 45 70 0.0 0.0 0.00 0.00 0.00 87 1011.5
20260903112015 46 106 1.0 2.0 0.00 0.00 0.00 86 1011.6
20260903111509 45 133 2.0 2.0 0.00 0.00 0.00 84 1011.1
20260903111005 45 93 0.0 1.0 0.00 0.00 0.00 86 1011.2
20260903110501 45 93 0.0 0.0 0.00 0.00 0.00 86 1011.3
20260903110000 44 110 2.0 2.0 0.00 0.00 0.00 87 1011.2
20260903105455 44 104 2.0 2.0 0.00 0.00 0.00 88 1011.2
20260903104950 44 93 1.0 1.0 0.00 0.00 0.00 88 1011.1
20260903104450 44 93 0.0 0.0 0.00 0.00 0.00 88 1011.3
20260903103946 44 100 2.0 2.0 0.00 0.00 0.00 89 1011.0
20260903103442 43 93 1.0 1.0 0.00 0.00 0.00 91 1011.1
20260903102937 43 82 0.0 0.0 0.00 0.00 0.00 90 1011.0
20260903102433 43 82 1.0 1.0 0.00 0.00 0.00 90 1011.0
20260903101931 42 82 2.0 2.0 0.00 0.00 0.00 91 1010.9
20260903101427 42 79 1.0 2.0 0.00 0.00 0.00 91 1010.9
20260903100922 42 75 0.0 0.0 0.00 0.00 0.00 92 1010.8
20260903100417 43 74 0.0 0.0 0.00 0.00 0.00 92 1011.0
20260903095914 43 74 0.0 0.0 0.00 0.00 0.00 92 1011.0
20260903095409 43 74 0.0 0.0 0.00 0.00 0.00 92 1010.8
20260903094904 43 74 0.0 0.0 0.00 0.00 0.00 91 1010.9
20260903094403 43 75 0.0 1.0 0.00 0.00 0.00 91 1010.9
20260903093900 44 86 2.0 2.0 0.00 0.00 0.00 90 1010.6
20260903093354 44 79 1.0 1.0 0.00 0.00 0.00 91 1010.7
20260903092850 44 71 0.0 0.0 0.00 0.00 0.00 91 1010.6
20260903092344 45 71 0.0 0.0 0.00 0.00 0.00 90 1010.5
20260903091843 45 72 0.0 0.0 0.00 0.00 0.00 90 1010.7
20260903091342 45 78 0.0 0.0 0.00 0.00 0.00 89 1010.7
20260903090837 45 91 0.0 0.0 0.00 0.00 0.00 89 1010.6
20260903090332 45 85 0.0 0.0 0.00 0.00 0.00 89 1010.6
20260903085830 45 86 0.0 0.0 0.00 0.00 0.00 89 1010.7
20260903085330 45 101 1.0 1.0 0.00 0.00 0.00 89 1010.8
20260903084829 45 93 0.0 0.0 0.00 0.00 0.00 88 1010.8
20260903084328 46 86 0.0 0.0 0.00 0.00 0.00 88 1010.5
20260903083824 46 27 1.0 1.0 0.00 0.00 0.00 87 1010.6
20260903083319 46 20 0.0 0.0 0.00 0.00 0.00 87 1010.9
20260903082818 46 9 1.0 1.0 0.00 0.00 0.00 86 1010.5
20260903082313 46 19 0.0 0.0 0.00 0.00 0.00 85 1010.7
20260903081809 47 86 0.0 0.0 0.00 0.00 0.00 84 1010.7
20260903081304 47 358 1.0 1.0 0.00 0.00 0.00 84 1010.7
20260903080801 47 348 0.0 0.0 0.00 0.00 0.00 84 1010.7
20260903080258 46 81 0.0 0.0 0.00 0.00 0.00 82 1010.5
20260903075757 46 55 0.0 0.0 0.00 0.00 0.00 84 1010.7
20260903075252 47 101 2.0 2.0 0.00 0.00 0.00 83 1010.5
20260903074751 48 98 3.0 3.0 0.00 0.00 0.00 80 1010.6
20260903074246 47 83 2.0 2.0 0.00 0.00 0.00 80 1010.3
20260903073742 48 83 2.0 2.0 0.00 0.00 0.00 78 1010.3
20260903073237 49 90 0.0 0.0 0.00 0.00 0.00 78 1010.2
20260903072733 49 91 0.0 0.0 0.00 0.00 0.00 78 1010.5
20260903072229 48 83 0.0 0.0 0.00 0.00 0.00 80 1010.3
20260903071726 48 83 1.0 2.0 0.00 0.00 0.00 80 1010.3
20260903071221 47 83 1.0 1.0 0.00 0.00 0.00 83 1010.5
20260903070720 47 69 1.0 2.0 0.00 0.00 0.00 81 1010.5
20260903070216 49 83 1.0 1.0 0.00 0.00 0.00 78 1010.6
20260903065711 49 83 0.0 0.0 0.00 0.00 0.00 77 1010.6
20260903065205 49 83 0.0 0.0 0.00 0.00 0.00 76 1010.7
20260903064704 48 83 1.0 1.0 0.00 0.00 0.00 78 1010.3
20260903064200 50 90 3.0 3.0 0.00 0.00 0.00 77 1010.5
20260903063656 50 61 1.0 1.0 0.00 0.00 0.00 75 1010.7
20260903063156 50 67 0.0 1.0 0.00 0.00 0.00 74 1010.3
20260903062652 51 92 0.0 1.0 0.00 0.00 0.00 72 1010.3
20260903062147 51 165 2.0 2.0 0.00 0.00 0.00 71 1010.6
20260903061642 49 27 1.0 1.0 0.00 0.00 0.00 76 1010.5
20260903061141 50 30 0.0 0.0 0.00 0.00 0.00 76 1010.6
20260903060637 51 93 1.0 1.0 0.00 0.00 0.00 76 1010.6
20260903060132 50 120 3.0 3.0 0.00 0.00 0.00 77 1010.7
20260903055629 50 89 0.0 0.0 0.00 0.10 0.10 77 1010.6
20260903055127 51 106 2.0 2.0 0.00 0.10 0.10 75 1010.6
20260903054622 53 164 2.0 2.0 0.00 0.10 0.10 70 1010.5
20260903054118 53 165 2.0 2.0 0.00 0.10 0.10 69 1010.5
20260903053614 54 138 1.0 1.0 0.00 0.10 0.10 69 1010.6
20260903053109 54 115 2.0 2.0 0.00 0.10 0.10 68 1010.6
20260903052605 52 122 2.0 2.0 0.00 0.10 0.10 72 1010.7
20260903052100 53 105 2.0 2.0 0.00 0.10 0.10 70 1010.9
20260903051555 52 82 1.0 1.0 0.00 0.10 0.10 71 1011.0
20260903051051 52 82 1.0 2.0 0.00 0.10 0.10 72 1011.2
20260903050550 53 75 1.0 2.0 0.00 0.10 0.10 70 1011.0
20260903050045 54 104 1.0 2.0 0.00 0.10 0.10 68 1011.1
20260903045544 55 107 4.0 5.0 0.00 0.10 0.10 70 1011.1
20260903045042 55 250 3.0 3.0 0.00 0.10 0.10 66 1010.9
20260903044537 56 99 0.0 0.0 0.00 0.10 0.10 65 1011.0
20260903044032 57 105 2.0 2.0 0.00 0.10 0.10 61 1011.0
20260903043528 53 155 4.0 5.0 0.00 0.10 0.10 70 1011.1
20260903043027 53 77 0.0 0.0 0.00 0.10 0.10 73 1011.0
20260903042522 52 254 2.0 2.0 0.00 0.10 0.10 76 1011.1
20260903042018 51 61 0.0 0.0 0.00 0.10 0.10 77 1011.2
20260903041514 52 73 3.0 3.0 0.00 0.10 0.10 76 1011.1
20260903041009 53 204 1.0 1.0 0.00 0.10 0.10 73 1011.1
20260903040508 53 261 2.0 2.0 0.00 0.10 0.10 73 1011.2
20260903040008 54 256 1.0 2.0 0.00 0.10 0.10 71 1011.0
20260903035500 55 174 3.0 3.0 0.00 0.10 0.10 68 1011.3
20260903034955 55 105 0.0 0.0 0.00 0.10 0.10 67 1011.3
20260903034450 55 106 1.0 2.0 0.00 0.10 0.10 69 1011.5
20260903033950 55 100 1.0 2.0 0.00 0.10 0.10 71 1011.2
20260903033445 57 86 3.0 3.0 0.00 0.10 0.10 64 1011.2
20260903032940 57 84 0.0 0.0 0.00 0.10 0.10 63 1011.1
20260903032436 58 84 0.0 1.0 0.00 0.10 0.10 64 1011.2
20260903031930 59 87 2.0 2.0 0.00 0.10 0.10 61 1010.9
20260903031425 59 0 0.0 0.0 0.00 0.10 0.10 60 1011.0
20260903030920 59 0 1.0 2.0 0.00 0.10 0.10 58 1011.1
20260903030416 60 0 2.0 2.0 0.00 0.10 0.10 57 1011.2
20260903025912 60 21 1.0 2.0 0.00 0.10 0.10 56 1011.2
20260903025408 61 314 3.0 5.0 0.00 0.10 0.10 55 1011.2
20260903024902 61 7 3.0 3.0 0.00 0.10 0.10 55 1010.8
20260903024356 61 314 4.0 5.0 0.00 0.10 0.10 54 1011.0
20260903023851 61 321 5.0 6.0 0.00 0.10 0.10 53 1011.0
20260903023347 61 337 3.0 3.0 0.00 0.10 0.10 54 1011.0
20260903022842 61 9 1.0 2.0 0.00 0.10 0.10 55 1011.0
20260903022341 60 25 2.0 2.0 0.00 0.10 0.10 55 1011.1
20260903021840 60 25 1.0 1.0 0.00 0.10 0.10 56 1011.0
20260903021336 60 25 1.0 2.0 0.00 0.10 0.10 56 1011.0
20260903020835 61 24 1.0 1.0 0.00 0.10 0.10 55 1011.0
20260903020331 61 25 1.0 1.0 0.00 0.10 0.10 55 1011.2
20260903015825 62 36 0.0 0.0 0.00 0.10 0.10 54 1011.2
20260903015321 62 293 1.0 2.0 0.00 0.10 0.10 53 1011.1
20260903014816 62 299 4.0 5.0 0.00 0.10 0.10 54 1011.2
20260903014316 62 24 0.0 0.0 0.00 0.10 0.10 56 1010.8
20260903013811 63 24 0.0 0.0 0.00 0.10 0.10 55 1011.1
20260903013310 64 10 1.0 1.0 0.00 0.10 0.10 53 1011.3
20260903012809 65 24 1.0 1.0 0.00 0.10 0.10 51 1011.2
20260903012306 65 31 1.0 1.0 0.00 0.10 0.10 54 1011.0
20260903011757 66 312 4.0 5.0 0.00 0.10 0.10 51 1011.2
20260903011256 66 323 4.0 5.0 0.00 0.10 0.10 50 1010.9
20260903010752 66 340 5.0 6.0 0.00 0.10 0.10 49 1010.9
20260903010248 66 310 8.0 9.0 0.00 0.10 0.10 48 1011.0
20260903005746 66 309 7.0 8.0 0.00 0.10 0.10 49 1010.8
20260903005241 66 315 5.0 6.0 0.00 0.10 0.10 50 1010.9
20260903004737 66 345 6.0 7.0 0.00 0.10 0.10 49 1010.6
20260903004232 66 288 5.0 6.0 0.00 0.10 0.10 50 1010.9
20260903003728 65 296 3.0 3.0 0.00 0.10 0.10 49 1011.0
20260903003223 67 353 5.0 6.0 0.00 0.10 0.10 46 1011.0
20260903002717 66 283 6.0 7.0 0.00 0.10 0.10 47 1011.0
20260903002212 66 250 9.0 10.0 0.00 0.10 0.10 46 1010.9
20260903001707 67 251 9.0 10.0 0.00 0.10 0.10 47 1011.2
20260903001207 66 274 7.0 8.0 0.00 0.10 0.10 46 1011.2
20260903000702 66 290 5.0 6.0 0.00 0.10 0.10 50 1011.5
20260903000156 65 274 7.0 8.0 0.00 0.10 0.10 49 1011.6
20260902235655 64 268 5.0 6.0 0.00 0.10 0.10 53 1011.7
20260902235150 65 277 5.0 6.0 0.00 0.10 0.10 52 1011.7
20260902234650 66 302 7.0 9.0 0.00 0.10 0.10 51 1011.7
20260902234148 65 310 7.0 7.0 0.00 0.10 0.10 49 1011.8
20260902233643 65 320 5.0 7.0 0.00 0.10 0.10 51 1011.7
20260902233143 65 287 8.0 9.0 0.00 0.10 0.10 52 1011.6
20260902232642 65 264 12.0 14.0 0.00 0.10 0.10 50 1011.5
20260902232142 64 282 11.0 11.0 0.00 0.10 0.10 51 1011.7
20260902231641 65 270 9.0 10.0 0.00 0.10 0.10 52 1011.2
20260902231136 65 282 8.0 11.0 0.00 0.10 0.10 52 1011.5
20260902230632 64 261 9.0 10.0 0.00 0.10 0.10 52 1011.7
20260902230130 64 247 7.0 10.0 0.00 0.10 0.10 55 1011.9
20260902225626 64 249 10.0 10.0 0.00 0.10 0.10 55 1011.7
20260902225125 64 263 11.0 11.0 0.00 0.10 0.10 57 1011.5
20260902224624 64 280 18.0 20.0 0.00 0.10 0.10 55 1011.5
20260902224120 64 286 14.0 15.0 0.00 0.10 0.10 58 1011.2
20260902223616 63 264 15.0 17.0 0.00 0.10 0.10 59 1011.3
20260902223115 62 317 16.0 18.0 0.00 0.10 0.10 58 1011.7
20260902222614 61 285 14.0 20.0 0.00 0.10 0.10 60 1011.9
20260902222113 60 320 3.0 3.0 0.00 0.10 0.10 65 1012.0
20260902221608 60 14 5.0 6.0 0.00 0.10 0.10 62 1011.9
20260902221102 60 304 7.0 8.0 0.00 0.10 0.10 63 1011.6
20260902220558 60 322 5.0 6.0 0.00 0.10 0.10 60 1011.8
20260902220052 60 323 2.0 3.0 0.00 0.10 0.10 64 1011.9
20260902215548 59 26 3.0 3.0 0.00 0.10 0.10 67 1011.9
20260902215043 59 357 3.0 3.0 0.00 0.10 0.10 67 1011.7
20260902214538 58 245 5.0 6.0 0.00 0.10 0.10 67 1011.6
20260902214037 58 243 12.0 18.0 0.00 0.10 0.10 67 1010.6
20260902213533 58 268 17.0 21.0 0.00 0.10 0.10 67 1009.8
20260902213032 57 257 18.0 21.0 0.00 0.10 0.10 69 1010.5
20260902212528 56 250 20.0 22.0 0.00 0.10 0.10 71 1010.3
20260902212024 56 246 17.0 21.0 0.12 0.10 0.10 71 1010.6
20260902211520 55 250 20.0 24.0 0.12 0.10 0.10 74 1010.9
20260902211015 59 246 26.0 33.0 0.00 0.08 0.08 64 1010.7
20260902210514 62 250 20.0 23.0 0.00 0.08 0.08 53 1010.5
20260902210014 63 271 24.0 30.0 0.00 0.08 0.08 52 1009.8
20260902205508 64 286 32.0 35.0 0.00 0.08 0.08 49 1009.7
20260902205004 65 275 32.0 37.0 0.00 0.08 0.08 49 1009.0
20260902204503 68 269 30.0 37.0 0.00 0.08 0.08 47 1008.8
20260902203959 77 210 3.0 3.0 0.00 0.08 0.08 47 1007.3
20260902203454 77 92 5.0 6.0 0.00 0.08 0.08 47 1007.0
20260902202953 78 55 5.0 7.0 0.00 0.08 0.08 49 1006.7
20260902202449 77 104 5.0 6.0 0.00 0.08 0.08 49 1006.8
20260902201946 77 115 6.0 7.0 0.00 0.08 0.08 48 1007.0
20260902201441 76 109 8.0 10.0 0.00 0.08 0.08 50 1006.9
20260902200940 77 109 5.0 7.0 0.00 0.08 0.08 51 1007.0
20260902200435 77 77 1.0 2.0 0.00 0.08 0.08 50 1007.0
20260902195931 74 119 5.0 6.0 0.00 0.08 0.08 53 1007.0
20260902195426 74 94 6.0 6.0 0.00 0.08 0.08 52 1007.2
20260902194925 73 89 5.0 5.0 0.00 0.08 0.08 53 1007.4
20260902194420 73 79 5.0 6.0 0.00 0.08 0.08 56 1007.3
20260902193915 73 106 6.0 7.0 0.00 0.08 0.08 56 1007.7
20260902193411 73 104 7.0 8.0 0.00 0.08 0.08 56 1007.5
20260902192909 73 115 7.0 7.0 0.00 0.08 0.08 55 1007.9
20260902192409 73 84 6.0 7.0 0.00 0.08 0.08 57 1008.0
20260902191902 73 102 6.0 7.0 0.00 0.08 0.08 55 1007.9
20260902191358 73 70 3.0 3.0 0.00 0.08 0.08 53 1007.9
20260902190858 74 113 6.0 7.0 0.00 0.08 0.08 51 1008.0
20260902190353 73 98 7.0 8.0 0.00 0.08 0.08 53 1008.1
20260902185849 74 111 5.0 8.0 0.00 0.08 0.08 51 1008.1
20260902185345 73 90 5.0 6.0 0.00 0.08 0.08 53 1008.3
20260902184840 72 89 4.0 5.0 0.00 0.08 0.08 55 1008.4